EW5622 Weather Reports


Display with metric or nautical units.
time (UTC)temp
F
wind
direction
speed
MPH
gust
MPH
rain 1hr
in
rain 24hr
in
rain mn
in
humidity
%
barometer
mb
20260903131115 83 313 0.0 37.0 0.00 0.00 0.00 65 1021.1
20260903130003 83 301 17.0 17.0 0.00 0.00 0.00 65 1021.1
20260903125614 83 233 0.0 43.0 0.00 0.00 0.00 66 1021.1
20260903124504 82 283 0.0 55.0 0.00 0.00 0.00 66 1021.1
20260903123603 83 321 35.0 69.0 0.00 0.00 0.00 65 1021.1
20260903122704 82 329 69.0 69.0 0.00 0.00 0.00 66 1021.1
20260903121803 82 300 6.0 39.0 0.00 0.00 0.00 66 1021.1
20260903120903 81 290 0.0 53.0 0.00 0.00 0.00 67 1022.1
20260903120003 81 339 36.0 76.0 0.00 0.00 0.00 66 1022.1
20260903115614 82 339 5.0 76.0 0.00 0.00 0.00 67 1022.1
20260903114503 82 250 0.0 24.0 0.00 0.00 0.00 66 1022.1
20260903113605 82 315 24.0 24.0 0.00 0.00 0.00 67 1022.1
20260903112914 82 225 0.0 37.0 0.00 0.00 0.00 66 1022.1
20260903111805 83 317 0.0 47.0 0.00 0.00 0.00 66 1022.1
20260903110905 85 65 0.0 34.0 0.00 0.00 0.00 65 1022.1
20260903110214 83 88 0.0 39.0 0.00 0.00 0.00 66 1022.1
20260903105403 83 90 17.0 17.0 0.00 0.00 0.00 68 1023.1
20260903104503 82 90 0.0 22.0 0.00 0.00 0.00 68 1023.1
20260903103814 81 98 0.0 22.0 0.00 0.00 0.00 69 1023.1
20260903102915 82 22 0.0 1.0 0.00 0.00 0.00 70 1023.1
20260903101805 81 90 0.0 48.0 0.00 0.00 0.00 71 1023.1
20260903100903 80 107 0.0 75.0 0.00 0.00 0.00 73 1023.1
20260903100005 79 90 0.0 36.0 0.00 0.00 0.00 75 1023.1
20260903095405 78 67 0.0 39.0 0.00 0.00 0.00 77 1023.1
20260903094504 76 90 0.0 39.0 0.00 0.00 0.00 80 1023.1
20260903093603 76 90 39.0 39.0 0.00 0.00 0.00 80 1023.1
20260903092704 75 0 0.0 0.0 0.00 0.00 0.00 83 1023.1
20260903091805 73 59 0.0 39.0 0.00 0.00 0.00 85 1023.1
20260903090905 72 67 0.0 1.0 0.00 0.00 0.00 89 1023.1
20260903090003 71 65 0.0 39.0 0.00 0.00 0.00 90 1023.1
20260903085613 71 62 0.0 39.0 0.00 0.00 0.00 90 1023.1
20260903084714 69 97 0.0 77.0 0.00 0.00 0.00 92 1023.1
20260903083604 68 0 0.0 0.0 0.00 0.00 0.00 95 1023.1
20260903082703 67 27 0.0 39.0 0.00 0.00 0.00 97 1023.1
20260903082014 66 27 39.0 39.0 0.00 0.00 0.00 98 1023.1
20260903080903 65 0 0.0 0.0 0.00 0.00 0.00 98 1023.1
20260903080215 64 0 0.0 0.0 0.00 0.00 0.00 98 1023.1
20260903075614 64 0 0.0 0.0 0.00 0.00 0.00 98 1023.1
20260903074503 62 90 0.0 25.0 0.00 0.00 0.00 98 1023.1
20260903073603 61 90 0.0 39.0 0.00 0.00 0.00 98 1023.1
20260903072703 60 0 0.0 0.0 0.00 0.00 0.00 98 1023.1
20260903071803 59 0 0.0 0.0 0.00 0.00 0.00 98 1023.1
20260903070905 58 0 0.0 0.0 0.00 0.00 0.00 98 1023.1
20260903070214 58 0 0.0 0.0 0.00 0.00 0.00 98 1023.1
20260903065404 57 0 0.0 0.0 0.00 0.00 0.00 98 1023.1
20260903064503 55 0 0.0 0.0 0.00 0.00 0.00 98 1023.1
20260903063603 55 0 0.0 0.0 0.00 0.00 0.00 98 1023.1
20260903062705 54 0 0.0 0.0 0.00 0.00 0.00 98 1023.1
20260903061803 54 0 0.0 0.0 0.00 0.00 0.00 98 1023.1
20260903060903 53 0 0.0 0.0 0.00 0.00 0.00 98 1023.1
20260903060003 53 0 0.0 0.0 0.00 0.00 0.00 98 1023.1
20260903055405 53 0 0.0 0.0 0.00 0.00 0.00 98 1023.1
20260903054713 53 0 0.0 0.0 0.00 0.00 0.00 98 1023.1
20260903053603 53 0 0.0 0.0 0.00 0.00 0.00 98 1023.1
20260903052705 53 0 0.0 0.0 0.00 0.00 0.00 98 1023.1
20260903051803 53 0 0.0 0.0 0.00 0.00 0.00 98 1023.1
20260903050905 53 0 0.0 0.0 0.00 0.00 0.00 98 1023.1
20260903050005 53 0 0.0 0.0 0.00 0.00 0.00 98 1023.1
20260903045405 53 0 0.0 0.0 0.00 0.00 0.00 98 1023.1
20260903044505 53 0 0.0 0.0 0.00 0.00 0.00 98 1023.1
20260903043605 53 0 0.0 0.0 0.00 0.00 0.00 98 1023.1
20260903042703 53 0 0.0 0.0 0.00 0.00 0.00 98 1023.1
20260903041804 53 0 0.0 0.0 0.00 0.00 0.00 98 1023.1
20260903041114 53 0 0.0 0.0 0.00 0.00 0.00 98 1023.1
20260903040003 54 0 0.0 0.0 0.00 0.00 0.00 98 1023.1
20260903035403 54 0 0.0 0.0 0.00 0.00 0.00 98 1023.1
20260903034504 54 0 0.0 0.0 0.00 0.00 0.00 98 1023.1
20260903033603 54 0 0.0 0.0 0.00 0.00 0.00 98 1023.1
20260903032705 54 0 0.0 0.0 0.00 0.00 0.00 98 1023.1
20260903031803 54 0 0.0 0.0 0.00 0.00 0.00 98 1023.1
20260903030903 55 0 0.0 0.0 0.00 0.00 0.00 98 1023.1
20260903030003 55 0 0.0 0.0 0.00 0.00 0.00 98 1023.1
20260903025403 55 0 0.0 0.0 0.00 0.00 0.00 98 1023.1
20260903024503 55 0 0.0 0.0 0.00 0.00 0.00 98 1023.1
20260903023603 55 0 0.0 0.0 0.00 0.00 0.00 98 1023.1
20260903022703 55 0 0.0 0.0 0.00 0.00 0.00 98 1023.1
20260903021805 56 0 0.0 0.0 0.00 0.00 0.00 97 1023.1
20260903020903 56 0 0.0 0.0 0.00 0.00 0.00 97 1023.1
20260903020005 56 0 0.0 0.0 0.00 0.00 0.00 97 1023.1
20260903015403 56 0 0.0 0.0 0.00 0.00 0.00 97 1023.1
20260903014505 56 0 0.0 0.0 0.00 0.00 0.00 97 1023.1
20260903013603 56 0 0.0 0.0 0.00 0.00 0.00 97 1023.1
20260903012703 56 0 0.0 0.0 0.00 0.00 0.00 96 1023.1
20260903011803 57 0 0.0 0.0 0.00 0.00 0.00 96 1023.1
20260903010905 57 0 0.0 0.0 0.00 0.00 0.00 96 1023.1
20260903010003 57 0 0.0 0.0 0.00 0.00 0.00 95 1023.1
20260903005614 57 0 0.0 0.0 0.00 0.00 0.00 95 1023.1
20260903004504 57 0 0.0 0.0 0.00 0.00 0.00 94 1023.1
20260903003603 58 0 0.0 0.0 0.00 0.00 0.00 94 1023.1
20260903002703 58 0 0.0 0.0 0.00 0.00 0.00 94 1023.1
20260903001803 58 0 0.0 0.0 0.00 0.00 0.00 94 1023.1
20260903000905 58 0 0.0 0.0 0.00 0.00 0.00 94 1023.1
20260903000216 58 0 0.0 0.0 0.00 0.00 0.00 93 1023.1
20260902235405 59 0 0.0 0.0 0.00 0.00 0.00 93 1023.1
20260902234715 59 0 0.0 0.0 0.00 0.00 0.00 93 1023.1
20260902233603 59 0 0.0 0.0 0.00 0.00 0.00 92 1023.1
20260902232703 60 0 0.0 0.0 0.00 0.00 0.00 92 1023.1
20260902231805 60 0 0.0 0.0 0.00 0.00 0.00 91 1023.1
20260902230904 60 0 0.0 0.0 0.00 0.00 0.00 90 1024.1
20260902230003 61 0 0.0 0.0 0.00 0.00 0.00 90 1024.1
20260902225403 61 0 0.0 0.0 0.00 0.00 0.00 89 1023.1
20260902224714 62 0 0.0 0.0 0.00 0.00 0.00 89 1023.1
20260902223603 62 0 0.0 0.0 0.00 0.00 0.00 89 1023.1
20260902222705 62 0 0.0 0.0 0.00 0.00 0.00 88 1023.1
20260902221805 63 0 0.0 0.0 0.00 0.00 0.00 87 1023.1
20260902220903 63 0 0.0 0.0 0.00 0.00 0.00 87 1023.1
20260902220004 64 0 0.0 0.0 0.00 0.00 0.00 86 1023.1
20260902215612 64 0 0.0 0.0 0.00 0.00 0.00 86 1023.1
20260902214505 64 0 0.0 0.0 0.00 0.00 0.00 86 1023.1
20260902213604 65 0 0.0 0.0 0.00 0.00 0.00 85 1023.1
20260902212703 65 0 0.0 0.0 0.00 0.00 0.00 85 1023.1
20260902211803 65 0 0.0 0.0 0.00 0.00 0.00 85 1023.1
20260902210904 65 0 0.0 0.0 0.00 0.00 0.00 84 1023.1
20260902210003 66 0 0.0 0.0 0.00 0.00 0.00 84 1023.1
20260902205405 66 0 0.0 0.0 0.00 0.00 0.00 84 1023.1
20260902204503 66 337 0.0 23.0 0.00 0.00 0.00 83 1023.1
20260902203813 66 0 0.0 0.0 0.00 0.00 0.00 83 1023.1
20260902202705 67 360 0.0 40.0 0.00 0.00 0.00 82 1023.1
20260902201806 67 0 0.0 0.0 0.00 0.00 0.00 82 1023.1
20260902200903 67 0 0.0 0.0 0.00 0.00 0.00 82 1023.1
20260902200003 67 0 0.0 0.0 0.00 0.00 0.00 81 1023.1
20260902195403 67 337 0.0 77.0 0.00 0.00 0.00 81 1022.1
20260902194503 68 337 77.0 77.0 0.00 0.00 0.00 81 1022.1
20260902193603 68 0 0.0 0.0 0.00 0.00 0.00 80 1022.1
20260902192705 68 0 0.0 0.0 0.00 0.00 0.00 79 1022.1
20260902191803 69 360 0.0 2.0 0.00 0.00 0.00 79 1022.1
20260902190903 69 360 2.0 57.0 0.00 0.00 0.00 78 1022.1
20260902190005 69 2 0.0 5.0 0.00 0.00 0.00 78 1022.1
20260902185405 69 15 5.0 21.0 0.00 0.00 0.00 78 1021.1
20260902184715 69 3 0.0 69.0 0.00 0.00 0.00 77 1021.1
20260902183604 70 12 1.0 35.0 0.00 0.00 0.00 76 1021.1
20260902182705 71 3 3.0 40.0 0.00 0.00 0.00 75 1021.1
20260902181804 71 340 36.0 36.0 0.00 0.00 0.00 73 1021.1
20260902180903 71 351 0.0 4.0 0.00 0.00 0.00 72 1021.1
20260902180213 72 357 1.0 42.0 0.00 0.00 0.00 71 1021.1
20260902175615 72 1 0.0 39.0 0.00 0.00 0.00 71 1021.1
20260902174505 72 13 3.0 5.0 0.00 0.00 0.00 70 1021.1
20260902173814 73 330 5.0 31.0 0.00 0.00 0.00 69 1021.1
20260902172705 74 16 0.0 25.0 0.00 0.00 0.00 68 1021.1
20260902172014 74 353 3.0 22.0 0.00 0.00 0.00 68 1021.1
20260902170905 76 333 2.0 54.0 0.00 0.00 0.00 67 1021.1
20260902170005 77 355 25.0 25.0 0.00 0.00 0.00 66 1021.1
20260902165403 77 9 0.0 13.0 0.00 0.00 0.00 65 1021.1
20260902164714 78 1 4.0 4.0 0.00 0.00 0.00 64 1021.1
20260902163603 80 360 3.0 6.0 0.00 0.00 0.00 64 1021.1
20260902162705 80 347 2.0 5.0 0.00 0.00 0.00 63 1021.1
20260902161803 80 6 0.0 7.0 0.00 0.00 0.00 64 1021.1
20260902160904 80 349 7.0 7.0 0.00 0.00 0.00 63 1021.1
20260902160005 81 334 3.0 5.0 0.00 0.00 0.00 61 1021.1
20260902155403 82 358 3.0 8.0 0.00 0.00 0.00 62 1021.1
20260902154504 83 5 1.0 6.0 0.00 0.00 0.00 61 1021.1
20260902153605 83 353 5.0 5.0 0.00 0.00 0.00 61 1021.1
20260902152703 82 11 2.0 5.0 0.00 0.00 0.00 62 1021.1
20260902151805 82 352 3.0 5.0 0.00 0.00 0.00 61 1021.1
20260902150905 83 355 2.0 7.0 0.00 0.00 0.00 62 1021.1
20260902150003 82 359 1.0 6.0 0.00 0.00 0.00 63 1021.1
20260902145403 82 6 4.0 6.0 0.00 0.00 0.00 63 1021.1
20260902144713 82 7 5.0 5.0 0.00 0.00 0.00 64 1021.1
20260902143603 81 333 21.0 21.0 0.00 0.00 0.00 64 1021.1
20260902142705 82 342 3.0 13.0 0.00 0.00 0.00 65 1021.1
20260902141803 82 344 0.0 21.0 0.00 0.00 0.00 65 1021.1
20260902140903 80 337 3.0 4.0 0.00 0.00 0.00 65 1021.1
20260902140003 81 352 4.0 27.0 0.00 0.00 0.00 66 1021.1
20260902135403 81 355 0.0 57.0 0.00 0.00 0.00 65 1021.1
20260902134713 81 352 57.0 57.0 0.00 0.00 0.00 66 1021.1
20260902133603 81 353 22.0 35.0 0.00 0.00 0.00 65 1021.1
20260902132915 80 357 5.0 35.0 0.00 0.00 0.00 66 1021.1
20260902131803 80 336 24.0 32.0 0.00 0.00 0.00 66 1022.1